Regional Weather Roundup
Issued by NWS Sterling, VA

Home | Current Version | Previous Version | Graphics & Text | Print | Product List | Glossary On
Versions: 1 2 3 4 5 6 7 8 9 10 11 12 13 14 15 16 17 18 19 20 21 22 23 24 25 26 27 28 29 30 31 32 33 34 35 36 37 38 39 40 41 42 43 44 45 46 47 48 49 50
000
ASUS41 KLWX 010810
RWRLWX

REGIONAL WEATHER ROUNDUP
NATIONAL WEATHER SERVICE BALTIMORE MD/WASHINGTON DC
400 AM EDT TUE SEP 01 2015

Note: "FAIR" indicates few or no clouds below 12,000 feet
with no significant weather and/or obstructions to visibility.
 TC=TEMPERATURE CELSIUS

 * =Non NWS site. Station does not report precipitation (e.g. rain,
    snow, etc.), thunder, or fog.

DCZ001-MDZ009-015-VAZ040>042-051-053>054-010900-
WASHINGTON METRO

CITY           SKY/WX    TMP DP  RH WIND       PRES   REMARKS
WASHINGTON NAT PTCLDY    72  69  90 SW6       30.05S
DULLES         CLEAR     69  67  93 CALM      30.05S
ANDREWS AFB    CLEAR     70  69  96 SW5       30.04S
FT BELVOIR     CLEAR     68  66  94 CALM      30.04F
QUANTICO       CLEAR     72  68  87 W3        30.05F
COLLEGE PARK*  CLEAR     72  70  94 CALM      30.04S
LEESBURG*      CLEAR     70  70 100 CALM      30.06S
MANASSAS*      CLEAR     68  68 100 CALM      30.05S
GAITHERSBURG*  CLEAR     70  64  83 CALM      30.09S

$$

MDZ006>007-011-014-010900-
BALTIMORE METRO

CITY           SKY/WX    TMP DP  RH WIND       PRES   REMARKS
BWI AIRPORT    CLEAR     71  68  90 CALM      30.03F
MD SCIENCE CTR   N/A     74  69  85 MISG      30.04S
ANNAPOLIS      CLEAR     73  70  90 W3        30.03S
FORT MEADE*    CLEAR     64  63  94 CALM      30.06S

$$

MDZ012-015-019>023-010900-
MARYLAND EASTERN SHORE

CITY           SKY/WX    TMP DP  RH WIND       PRES   REMARKS
OCEAN CITY     CLEAR     70  68  93 W3        30.04F
SALISBURY      CLEAR     68  66  93 CALM      30.04F
BAY BRIDGE AP*   N/A     73  70  88 CALM      30.04S
CAMBRIDGE*     CLEAR     70  66  88 CALM      30.04F

$$

MDZ017>025-010900-
SOUTHERN MARYLAND

CITY           SKY/WX    TMP DP  RH WIND       PRES   REMARKS
PATUXENT RIVER CLEAR     68  66  93 CALM      30.04F
ST INIGOES     CLEAR     72  70  93 SW5       30.04S
LEONARDTOWN*   NOT AVBL

$$

MDZ003>005-010900-
NORTH CENTRAL MARYLAND

CITY           SKY/WX    TMP DP  RH WIND       PRES   REMARKS
FREDERICK*     CLEAR     68  68 100 CALM      30.07S
HAGERSTOWN APT CLEAR     72  66  81 CALM      30.06F
WESTMINSTER*   CLEAR     72  66  83 CALM      30.06S

$$

MDZ501>502-010900-
WESTERN MARYLAND

CITY           SKY/WX    TMP DP  RH WIND       PRES   REMARKS
OAKLAND*       CLEAR     64  61  88 W3        30.20S
CUMBERLAND*    CLEAR     68  68 100 CALM      30.13S

$$

VAZ025>031-010900-
SHENANDOAH VALLEY

CITY           SKY/WX    TMP DP  RH WIND       PRES   REMARKS
WINCHESTER*    CLEAR     66  63  88 CALM      30.07S
FRONT ROYAL*   FAIR      66  63  88 S5        30.07S
LURAY*         FAIR      63  63 100 CALM      30.09S
NEW MARKET*    FAIR      62  61  97 CALM      30.09R
STAUNTON*      CLEAR     64  61  91 CALM      30.13S
WAYNESBORO*    FAIR      64  62  90 CALM      30.12S

$$

WVZ021-048>050-054>055-010900-
EASTERN WEST VIRGINIA PANHANDLE

CITY           SKY/WX    TMP DP  RH WIND       PRES   REMARKS
MARTINSBURG    CLEAR     64  63  96 CALM      30.07R FOG
PETERSBURG*    CLEAR     63  63  98 CALM      30.12S FOG

$$

VAZ036>039-050-010900-
CENTRAL FOOTHILLS

CITY           SKY/WX    TMP DP  RH WIND       PRES   REMARKS
CHARLOTTESVILL CLEAR     66  63  90 CALM      30.06F
CULPEPER*      FOG       65  65 100 CALM      30.06S VSB 1/2
ORANGE*        FOG       70  70 100 S3        30.07S VSB 1/2
GORDONSVILLE*  FOG       69  69 100 CALM      30.06S VSB 1/2
WARRENTON*     FOG       67  67 100 CALM      30.05S VSB 1/2

$$

VAZ055>057-010900-
NORTH AND CENTRAL PIEDMONT

CITY           SKY/WX    TMP DP  RH WIND       PRES   REMARKS
FREDERICKSBRG* CLOUDY    73  73 100 CALM      30.04S
STAFFORD*      CLOUDY    69  67  94 CALM      30.09S

$$

NCZ024-NYZ072-PAZ021-071-VAZ022-071-010900-
OTHER REGIONAL OBSERVATIONS

CITY           SKY/WX    TMP DP  RH WIND       PRES   REMARKS
NEW YORK CITY  CLEAR     79  66  64 CALM      30.04R
PHILADELPHIA   PTCLDY    74  69  85 SW7       30.03S
PITTSBURGH     CLEAR     69  65  86 CALM      30.10F
ROANOKE        CLEAR     67  64  90 CALM      30.13S
RICHMOND       MOCLDY    72  68  87 CALM      30.05F
RALEIGH        FOG       69  69 100 CALM      30.08S VSB 1/16

$$

ANZ530>537-010900-
MARINE OBSERVATIONS

STATION/POSITION TIME  TEMP    WIND        PRES
                       AIR SEA DIR/SP/G
                 (UTC) (F)     (DEG/KT/KT) (MB)
THOMAS PT LIGHT  NOT AVBL
BALT KEY BRIDGE  0700   74     240/  6/  7   N/A
COVE POINT       0700   72     280/ 10/ 15   N/A
LEWISETTA        0700   71 79  260/  5/  6   N/A
SOLOMONS ISLAND  0700      80                N/A
PINEY POINT      0705          280/  5/  6   N/A

$$




USA.gov is the U.S. government's official web portal to all federal, state and local government web resources and services.